Time,TemperatureF,DewpointF,PressureIn,WindDirection,WindDirectionDegrees,WindSpeedMPH,WindSpeedGustMPH,Humidity,HourlyPrecipIn,Conditions,Clouds,dailyrainin,SoftwareType,DateUTC
2013-12-16 00:01:00,25.6,23.6,30.12,SW,234,0.0,19.0,92,0.00,,,0.00,Wunderground v.1.15,2013-12-16 05:01:00,
2013-12-16 00:03:00,25.6,23.6,30.12,SW,234,0.0,19.0,92,0.00,,,0.00,Wunderground v.1.15,2013-12-16 05:03:00,
2013-12-16 00:04:00,25.6,23.6,30.12,SW,234,0.0,19.0,92,0.00,,,0.00,Wunderground v.1.15,2013-12-16 05:04:00,
2013-12-16 00:05:00,25.6,23.6,30.12,SW,234,0.0,19.0,92,0.00,,,0.00,Wunderground v.1.15,2013-12-16 05:05:00,
2013-12-16 00:06:00,25.6,23.6,30.12,SW,234,0.0,19.0,92,0.00,,,0.00,Wunderground v.1.15,2013-12-16 05:06:00,
2013-12-16 00:09:00,25.6,23.6,30.12,SW,234,0.0,19.0,92,0.00,,,0.00,Wunderground v.1.15,2013-12-16 05:09:00,
2013-12-16 00:15:00,25.6,23.6,30.12,SW,234,0.0,19.0,92,0.00,,,0.00,Wunderground v.1.15,2013-12-16 05:15:00,
2013-12-16 00:21:00,25.6,23.6,30.12,SW,234,0.0,19.0,92,0.00,,,0.00,Wunderground v.1.15,2013-12-16 05:21:00,
2013-12-16 00:27:00,25.6,23.9,30.11,SW,234,0.0,19.0,93,0.00,,,0.00,Wunderground v.1.15,2013-12-16 05:27:00,
2013-12-16 00:33:00,25.6,23.9,30.11,SW,234,0.0,19.0,93,0.00,,,0.00,Wunderground v.1.15,2013-12-16 05:33:00,
2013-12-16 00:38:00,25.6,23.9,30.11,SW,234,0.0,19.0,93,0.00,,,0.00,Wunderground v.1.15,2013-12-16 05:38:00,
2013-12-16 00:44:00,25.5,23.8,30.11,SW,234,0.0,19.0,93,0.00,,,0.00,Wunderground v.1.15,2013-12-16 05:44:00,
2013-12-16 00:50:00,25.6,23.9,30.11,SW,234,0.0,19.0,93,0.00,,,0.00,Wunderground v.1.15,2013-12-16 05:50:00,
2013-12-16 00:56:00,25.6,23.9,30.11,SW,234,0.0,19.0,93,0.00,,,0.00,Wunderground v.1.15,2013-12-16 05:56:00,
2013-12-16 01:02:00,25.6,23.9,30.11,SW,234,0.0,19.0,93,0.00,,,0.00,Wunderground v.1.15,2013-12-16 06:02:00,
2013-12-16 01:08:00,25.6,23.9,30.11,SW,234,0.0,19.0,93,0.00,,,0.00,Wunderground v.1.15,2013-12-16 06:08:00,
2013-12-16 01:14:00,25.6,23.9,30.11,SW,234,0.0,19.0,93,0.00,,,0.00,Wunderground v.1.15,2013-12-16 06:14:00,
2013-12-16 01:19:00,25.6,23.9,30.11,SW,234,0.0,19.0,93,0.00,,,0.00,Wunderground v.1.15,2013-12-16 06:19:00,
2013-12-16 01:25:00,25.6,24.1,30.11,SW,234,0.0,19.0,94,0.00,,,0.00,Wunderground v.1.15,2013-12-16 06:25:00,
2013-12-16 01:31:00,25.6,23.9,30.12,SW,234,0.0,19.0,93,0.00,,,0.00,Wunderground v.1.15,2013-12-16 06:31:00,
2013-12-16 01:37:00,25.6,24.1,30.11,SW,234,0.0,19.0,94,0.00,,,0.00,Wunderground v.1.15,2013-12-16 06:37:00,
2013-12-16 01:42:00,25.6,24.1,30.11,SW,234,0.0,19.0,94,0.00,,,0.00,Wunderground v.1.15,2013-12-16 06:42:00,
2013-12-16 01:48:00,25.5,24.0,30.11,SW,234,0.0,19.0,94,0.00,,,0.00,Wunderground v.1.15,2013-12-16 06:48:00,
2013-12-16 01:54:00,25.5,24.0,30.11,SW,234,0.0,19.0,94,0.00,,,0.00,Wunderground v.1.15,2013-12-16 06:54:00,
2013-12-16 02:00:00,25.4,24.2,30.11,SW,234,1.0,19.0,95,0.00,,,0.00,Wunderground v.1.15,2013-12-16 07:00:00,
2013-12-16 02:06:00,25.4,23.9,30.11,SW,234,1.0,19.0,94,0.00,,,0.00,Wunderground v.1.15,2013-12-16 07:06:00,
2013-12-16 02:12:00,25.4,24.2,30.11,SW,234,0.0,19.0,95,0.00,,,0.00,Wunderground v.1.15,2013-12-16 07:12:00,
2013-12-16 02:18:00,25.3,24.1,30.11,SW,234,0.0,19.0,95,0.00,,,0.00,Wunderground v.1.15,2013-12-16 07:18:00,
2013-12-16 02:23:00,25.3,24.1,30.11,SW,234,1.0,19.0,95,0.00,,,0.00,Wunderground v.1.15,2013-12-16 07:23:00,
2013-12-16 02:29:00,25.3,24.1,30.10,SW,234,1.0,19.0,95,0.00,,,0.00,Wunderground v.1.15,2013-12-16 07:29:00,
2013-12-16 02:35:00,25.3,24.1,30.11,SW,234,1.0,19.0,95,0.00,,,0.00,Wunderground v.1.15,2013-12-16 07:35:00,
2013-12-16 02:41:00,25.3,24.1,30.11,SW,234,1.0,19.0,95,0.00,,,0.00,Wunderground v.1.15,2013-12-16 07:41:00,
2013-12-16 02:46:00,25.2,24.0,30.11,SW,234,1.0,19.0,95,0.00,,,0.00,Wunderground v.1.15,2013-12-16 07:46:00,
2013-12-16 02:52:00,25.2,24.0,30.11,SW,234,1.0,19.0,95,0.00,,,0.00,Wunderground v.1.15,2013-12-16 07:52:00,
2013-12-16 02:58:00,25.2,24.0,30.11,SW,234,1.0,19.0,95,0.00,,,0.00,Wunderground v.1.15,2013-12-16 07:58:00,
2013-12-16 03:04:00,25.2,24.2,30.11,SW,234,1.0,19.0,96,0.00,,,0.00,Wunderground v.1.15,2013-12-16 08:04:00,
2013-12-16 03:10:00,25.2,24.2,30.11,SW,234,2.0,19.0,96,0.00,,,0.00,Wunderground v.1.15,2013-12-16 08:10:00,
2013-12-16 03:16:00,25.3,24.3,30.11,WNW,301,2.0,19.0,96,0.00,,,0.00,Wunderground v.1.15,2013-12-16 08:16:00,
2013-12-16 03:22:00,25.2,24.2,30.11,ENE,58,2.0,19.0,96,0.00,,,0.00,Wunderground v.1.15,2013-12-16 08:22:00,
2013-12-16 03:28:00,25.2,24.2,30.10,ENE,62,1.0,19.0,96,0.00,,,0.00,Wunderground v.1.15,2013-12-16 08:28:00,
2013-12-16 03:33:00,25.3,24.3,30.10,NE,52,1.0,19.0,96,0.00,,,0.00,Wunderground v.1.15,2013-12-16 08:33:00,
2013-12-16 03:39:00,25.2,24.2,30.10,NE,50,2.0,19.0,96,0.00,,,0.00,Wunderground v.1.15,2013-12-16 08:39:00,
2013-12-16 03:45:00,25.2,24.2,30.10,ENE,57,3.0,19.0,96,0.00,,,0.00,Wunderground v.1.15,2013-12-16 08:45:00,
2013-12-16 03:51:00,25.2,24.2,30.10,NE,51,2.0,4.0,96,0.00,,,0.00,Wunderground v.1.15,2013-12-16 08:51:00,
2013-12-16 03:56:00,25.2,24.2,30.10,NE,40,3.0,19.0,96,0.00,,,0.00,Wunderground v.1.15,2013-12-16 08:56:00,
2013-12-16 04:02:00,25.2,24.2,30.10,NE,53,2.0,19.0,96,0.00,,,0.00,Wunderground v.1.15,2013-12-16 09:02:00,
2013-12-16 04:08:00,25.2,24.2,30.09,NE,52,2.0,19.0,96,0.00,,,0.00,Wunderground v.1.15,2013-12-16 09:08:00,
2013-12-16 04:14:00,25.1,24.1,30.09,NE,55,2.0,19.0,96,0.00,,,0.00,Wunderground v.1.15,2013-12-16 09:14:00,
2013-12-16 04:19:00,25.2,24.2,30.08,NE,56,2.0,19.0,96,0.00,,,0.00,Wunderground v.1.15,2013-12-16 09:19:00,
2013-12-16 04:25:00,25.1,24.1,30.09,ENE,62,2.0,19.0,96,0.00,,,0.00,Wunderground v.1.15,2013-12-16 09:25:00,
2013-12-16 04:31:00,25.1,24.1,30.09,NNE,30,3.0,4.0,96,0.00,,,0.00,Wunderground v.1.15,2013-12-16 09:31:00,
2013-12-16 04:37:00,25.1,24.1,30.09,ENE,57,3.0,19.0,96,0.00,,,0.00,Wunderground v.1.15,2013-12-16 09:37:00,
2013-12-16 04:42:00,25.1,24.1,30.09,NE,40,3.0,19.0,96,0.00,,,0.00,Wunderground v.1.15,2013-12-16 09:42:00,
2013-12-16 04:48:00,25.1,24.1,30.09,NE,50,3.0,19.0,96,0.00,,,0.00,Wunderground v.1.15,2013-12-16 09:48:00,
2013-12-16 04:54:00,25.0,24.0,30.08,East,90,2.0,19.0,96,0.00,,,0.00,Wunderground v.1.15,2013-12-16 09:54:00,
2013-12-16 05:00:00,25.0,24.0,30.08,ENE,74,2.0,2.0,96,0.00,,,0.00,Wunderground v.1.15,2013-12-16 10:00:00,
2013-12-16 05:06:00,24.9,23.9,30.08,ENE,59,2.0,3.0,96,0.00,,,0.00,Wunderground v.1.15,2013-12-16 10:06:00,
2013-12-16 05:12:00,24.9,23.9,30.08,NE,51,2.0,3.0,96,0.00,,,0.00,Wunderground v.1.15,2013-12-16 10:12:00,
2013-12-16 05:18:00,25.0,24.0,30.08,NE,51,2.0,3.0,96,0.00,,,0.00,Wunderground v.1.15,2013-12-16 10:18:00,
2013-12-16 05:23:00,25.1,24.1,30.08,NE,56,2.0,3.0,96,0.00,,,0.00,Wunderground v.1.15,2013-12-16 10:23:00,
2013-12-16 05:29:00,25.1,24.1,30.09,NE,55,2.0,4.0,96,0.00,,,0.00,Wunderground v.1.15,2013-12-16 10:29:00,
2013-12-16 05:35:00,25.1,24.1,30.09,NE,51,2.0,5.0,96,0.00,,,0.00,Wunderground v.1.15,2013-12-16 10:35:00,
2013-12-16 05:41:00,25.1,24.1,30.08,NE,49,2.0,5.0,96,0.00,,,0.00,Wunderground v.1.15,2013-12-16 10:41:00,
2013-12-16 05:46:00,25.1,24.1,30.08,NE,42,3.0,5.0,96,0.00,,,0.00,Wunderground v.1.15,2013-12-16 10:46:00,
2013-12-16 05:52:00,25.0,24.0,30.09,NNE,30,3.0,5.0,96,0.00,,,0.00,Wunderground v.1.15,2013-12-16 10:52:00,
2013-12-16 05:58:00,25.0,24.0,30.09,NNE,19,3.0,5.0,96,0.00,,,0.00,Wunderground v.1.15,2013-12-16 10:58:00,
2013-12-16 06:04:00,25.0,24.0,30.09,NE,42,2.0,5.0,96,0.00,,,0.00,Wunderground v.1.15,2013-12-16 11:04:00,
2013-12-16 06:10:00,25.0,24.0,30.09,NNE,26,2.0,2.0,96,0.00,,,0.00,Wunderground v.1.15,2013-12-16 11:10:00,
2013-12-16 06:16:00,25.0,24.0,30.09,NE,34,2.0,5.0,96,0.00,,,0.00,Wunderground v.1.15,2013-12-16 11:16:00,
2013-12-16 06:22:00,25.0,24.0,30.09,NE,47,2.0,5.0,96,0.00,,,0.00,Wunderground v.1.15,2013-12-16 11:22:00,
2013-12-16 06:27:00,25.0,24.0,30.09,ENE,70,2.0,5.0,96,0.00,,,0.00,Wunderground v.1.15,2013-12-16 11:27:00,
2013-12-16 06:33:00,24.9,23.9,30.09,NE,42,3.0,5.0,96,0.00,,,0.00,Wunderground v.1.15,2013-12-16 11:33:00,
2013-12-16 06:39:00,24.9,23.9,30.09,NE,41,3.0,5.0,96,0.00,,,0.00,Wunderground v.1.15,2013-12-16 11:39:00,
2013-12-16 06:45:00,24.9,23.9,30.09,NNE,22,3.0,5.0,96,0.00,,,0.00,Wunderground v.1.15,2013-12-16 11:45:00,
2013-12-16 06:50:00,24.9,23.9,30.09,NE,44,3.0,5.0,96,0.00,,,0.00,Wunderground v.1.15,2013-12-16 11:50:00,
2013-12-16 06:56:00,24.8,23.8,30.09,NE,46,4.0,6.0,96,0.00,,,0.00,Wunderground v.1.15,2013-12-16 11:56:00,
2013-12-16 07:02:00,24.8,23.8,30.09,ENE,60,3.0,5.0,96,0.00,,,0.00,Wunderground v.1.15,2013-12-16 12:02:00,
2013-12-16 07:07:00,24.7,23.7,30.10,NE,34,3.0,5.0,96,0.00,,,0.00,Wunderground v.1.15,2013-12-16 12:07:00,
2013-12-16 07:13:00,24.6,23.4,30.09,ENE,57,4.0,7.0,95,0.00,,,0.00,Wunderground v.1.15,2013-12-16 12:13:00,
2013-12-16 07:18:00,24.5,23.3,30.09,NNE,32,4.0,7.0,95,0.00,,,0.00,Wunderground v.1.15,2013-12-16 12:18:00,
2013-12-16 07:24:00,24.4,23.2,30.09,NE,53,4.0,5.0,95,0.00,,,0.00,Wunderground v.1.15,2013-12-16 12:24:00,
2013-12-16 07:30:00,24.3,23.1,30.10,NE,42,4.0,5.0,95,0.00,,,0.00,Wunderground v.1.15,2013-12-16 12:30:00,
2013-12-16 07:36:00,24.2,23.0,30.10,ENE,71,4.0,7.0,95,0.00,,,0.00,Wunderground v.1.15,2013-12-16 12:36:00,
2013-12-16 07:41:00,24.1,22.9,30.10,NE,42,4.0,5.0,95,0.00,,,0.00,Wunderground v.1.15,2013-12-16 12:41:00,
2013-12-16 07:47:00,24.0,22.8,30.10,NE,53,4.0,7.0,95,0.00,,,0.00,Wunderground v.1.15,2013-12-16 12:47:00,
2013-12-16 07:53:00,24.0,22.8,30.10,NNE,21,4.0,5.0,95,0.00,,,0.00,Wunderground v.1.15,2013-12-16 12:53:00,
2013-12-16 07:59:00,24.0,22.8,30.10,NE,34,4.0,5.0,95,0.00,,,0.00,Wunderground v.1.15,2013-12-16 12:59:00,
2013-12-16 08:05:00,24.0,22.8,30.10,ENE,63,4.0,7.0,95,0.00,,,0.00,Wunderground v.1.15,2013-12-16 13:05:00,
2013-12-16 08:10:00,24.0,22.8,30.11,NE,49,4.0,4.0,95,0.00,,,0.00,Wunderground v.1.15,2013-12-16 13:10:00,
2013-12-16 08:16:00,23.9,22.7,30.10,NE,48,4.0,5.0,95,0.00,,,0.00,Wunderground v.1.15,2013-12-16 13:16:00,
2013-12-16 08:21:00,23.8,22.6,30.10,NE,47,4.0,5.0,95,0.00,,,0.00,Wunderground v.1.15,2013-12-16 13:21:00,
2013-12-16 08:27:00,23.7,22.2,30.10,NE,40,5.0,8.0,94,0.00,,,0.00,Wunderground v.1.15,2013-12-16 13:27:00,
2013-12-16 08:33:00,23.7,22.2,30.10,NE,43,5.0,5.0,94,0.00,,,0.00,Wunderground v.1.15,2013-12-16 13:33:00,
2013-12-16 08:39:00,23.7,22.2,30.10,NE,53,4.0,6.0,94,0.00,,,0.00,Wunderground v.1.15,2013-12-16 13:39:00,
2013-12-16 08:44:00,23.8,22.3,30.10,ENE,63,4.0,5.0,94,0.00,,,0.00,Wunderground v.1.15,2013-12-16 13:44:00,
2013-12-16 08:50:00,23.8,22.3,30.10,NE,51,5.0,8.0,94,0.00,,,0.00,Wunderground v.1.15,2013-12-16 13:50:00,
2013-12-16 08:56:00,23.7,22.2,30.09,NE,49,5.0,10.0,94,0.00,,,0.00,Wunderground v.1.15,2013-12-16 13:56:00,
2013-12-16 09:02:00,23.6,22.1,30.10,NE,45,6.0,9.0,94,0.00,,,0.00,Wunderground v.1.15,2013-12-16 14:02:00,
2013-12-16 09:07:00,23.6,22.1,30.10,NE,56,6.0,9.0,94,0.00,,,0.00,Wunderground v.1.15,2013-12-16 14:07:00,
2013-12-16 09:13:00,23.6,22.1,30.10,NE,46,5.0,7.0,94,0.00,,,0.00,Wunderground v.1.15,2013-12-16 14:13:00,
2013-12-16 09:18:00,23.7,22.2,30.10,ENE,71,5.0,7.0,94,0.00,,,0.00,Wunderground v.1.15,2013-12-16 14:18:00,
2013-12-16 09:24:00,23.7,22.2,30.10,NE,54,5.0,6.0,94,0.00,,,0.00,Wunderground v.1.15,2013-12-16 14:24:00,
2013-12-16 09:30:00,23.8,22.3,30.10,ENE,57,5.0,5.0,94,0.00,,,0.00,Wunderground v.1.15,2013-12-16 14:30:00,
2013-12-16 09:36:00,24.0,22.5,30.10,ENE,60,4.0,5.0,94,0.00,,,0.00,Wunderground v.1.15,2013-12-16 14:36:00,
2013-12-16 09:41:00,24.0,22.3,30.10,ENE,66,4.0,7.0,93,0.00,,,0.00,Wunderground v.1.15,2013-12-16 14:41:00,
2013-12-16 09:47:00,24.1,22.4,30.10,NE,42,5.0,8.0,93,0.00,,,0.00,Wunderground v.1.15,2013-12-16 14:47:00,
2013-12-16 09:53:00,24.0,22.3,30.10,ENE,57,6.0,7.0,93,0.00,,,0.00,Wunderground v.1.15,2013-12-16 14:53:00,
2013-12-16 09:58:00,24.1,22.4,30.10,ENE,59,6.0,8.0,93,0.00,,,0.00,Wunderground v.1.15,2013-12-16 14:58:00,
2013-12-16 10:04:00,24.3,22.8,30.11,ENE,67,5.0,6.0,94,0.00,,,0.00,Wunderground v.1.15,2013-12-16 15:04:00,
2013-12-16 10:10:00,24.5,23.0,30.10,NE,39,5.0,5.0,94,0.00,,,0.00,Wunderground v.1.15,2013-12-16 15:10:00,
2013-12-16 10:16:00,24.7,23.2,30.10,ENE,74,4.0,8.0,94,0.00,,,0.00,Wunderground v.1.15,2013-12-16 15:16:00,
2013-12-16 10:22:00,24.9,23.4,30.10,ENE,57,4.0,5.0,94,0.00,,,0.00,Wunderground v.1.15,2013-12-16 15:22:00,
2013-12-16 10:28:00,25.2,23.5,30.11,NE,46,3.0,5.0,93,0.00,,,0.00,Wunderground v.1.15,2013-12-16 15:28:00,
2013-12-16 10:33:00,25.3,23.6,30.11,NE,47,3.0,6.0,93,0.00,,,0.00,Wunderground v.1.15,2013-12-16 15:33:00,
2013-12-16 10:39:00,25.4,23.7,30.11,NE,52,4.0,6.0,93,0.00,,,0.00,Wunderground v.1.15,2013-12-16 15:39:00,
2013-12-16 10:45:00,25.6,23.9,30.11,NE,47,4.0,5.0,93,0.00,,,0.00,Wunderground v.1.15,2013-12-16 15:45:00,
2013-12-16 10:50:00,25.7,24.0,30.11,ENE,73,3.0,5.0,93,0.00,,,0.00,Wunderground v.1.15,2013-12-16 15:50:00,
2013-12-16 10:56:00,25.9,23.9,30.11,ENE,63,3.0,7.0,92,0.00,,,0.00,Wunderground v.1.15,2013-12-16 15:56:00,
2013-12-16 11:02:00,26.0,24.0,30.11,NE,35,3.0,5.0,92,0.00,,,0.00,Wunderground v.1.15,2013-12-16 16:02:00,
2013-12-16 11:08:00,26.1,24.1,30.11,NNE,31,3.0,5.0,92,0.00,,,0.00,Wunderground v.1.15,2013-12-16 16:08:00,
2013-12-16 11:13:00,26.1,23.8,30.11,NE,49,3.0,5.0,91,0.00,,,0.00,Wunderground v.1.15,2013-12-16 16:13:00,
2013-12-16 11:19:00,26.3,24.3,30.11,ENE,57,3.0,5.0,92,0.00,,,0.00,Wunderground v.1.15,2013-12-16 16:19:00,
2013-12-16 11:25:00,26.4,24.1,30.11,NE,42,3.0,5.0,91,0.00,,,0.00,Wunderground v.1.15,2013-12-16 16:25:00,
2013-12-16 11:31:00,26.5,24.2,30.11,North,11,3.0,5.0,91,0.00,,,0.00,Wunderground v.1.15,2013-12-16 16:31:00,
2013-12-16 11:36:00,26.6,24.3,30.11,NE,34,3.0,5.0,91,0.00,,,0.00,Wunderground v.1.15,2013-12-16 16:36:00,
2013-12-16 11:42:00,26.7,24.2,30.10,NE,53,3.0,5.0,90,0.00,,,0.00,Wunderground v.1.15,2013-12-16 16:42:00,
2013-12-16 11:48:00,26.9,24.6,30.10,NNE,17,3.0,5.0,91,0.00,,,0.00,Wunderground v.1.15,2013-12-16 16:48:00,
2013-12-16 11:54:00,27.1,24.8,30.10,NNE,27,3.0,5.0,91,0.00,,,0.00,Wunderground v.1.15,2013-12-16 16:54:00,
2013-12-16 12:00:00,27.3,24.8,30.09,ENE,63,2.0,5.0,90,0.00,,,0.00,Wunderground v.1.15,2013-12-16 17:00:00,
2013-12-16 12:06:00,27.3,24.8,30.09,ENE,63,3.0,5.0,90,0.00,,,0.00,Wunderground v.1.15,2013-12-16 17:06:00,
2013-12-16 12:12:00,27.3,24.8,30.08,NE,37,3.0,5.0,90,0.00,,,0.00,Wunderground v.1.15,2013-12-16 17:12:00,
2013-12-16 12:17:00,27.4,24.9,30.08,ENE,61,3.0,5.0,90,0.00,,,0.00,Wunderground v.1.15,2013-12-16 17:17:00,
2013-12-16 12:23:00,27.7,25.4,30.08,NE,38,3.0,5.0,91,0.00,,,0.00,Wunderground v.1.15,2013-12-16 17:23:00,
2013-12-16 12:29:00,27.8,25.2,30.07,NE,53,3.0,5.0,90,0.00,,,0.00,Wunderground v.1.15,2013-12-16 17:29:00,
2013-12-16 12:35:00,27.8,25.2,30.07,ENE,72,3.0,5.0,90,0.00,,,0.00,Wunderground v.1.15,2013-12-16 17:35:00,
2013-12-16 12:40:00,28.0,25.4,30.06,NE,44,3.0,5.0,90,0.00,,,0.00,Wunderground v.1.15,2013-12-16 17:40:00,
2013-12-16 12:46:00,28.0,25.4,30.06,NE,53,3.0,5.0,90,0.00,,,0.00,Wunderground v.1.15,2013-12-16 17:46:00,
2013-12-16 12:52:00,28.3,26.0,30.07,NE,55,3.0,5.0,91,0.00,,,0.00,Wunderground v.1.15,2013-12-16 17:52:00,
2013-12-16 12:58:00,28.5,25.9,30.06,NE,34,2.0,5.0,90,0.00,,,0.00,Wunderground v.1.15,2013-12-16 17:58:00,
2013-12-16 13:04:00,28.7,26.1,30.06,NE,38,2.0,5.0,90,0.00,,,0.01,Wunderground v.1.15,2013-12-16 18:04:00,
2013-12-16 13:10:00,28.9,26.3,30.06,North,355,2.0,5.0,90,0.00,,,0.01,Wunderground v.1.15,2013-12-16 18:10:00,
2013-12-16 13:16:00,29.0,26.2,30.06,NNE,16,3.0,5.0,89,0.00,,,0.01,Wunderground v.1.15,2013-12-16 18:16:00,
2013-12-16 13:21:00,28.9,26.1,30.05,North,11,3.0,5.0,89,0.00,,,0.01,Wunderground v.1.15,2013-12-16 18:21:00,
2013-12-16 13:27:00,29.0,26.2,30.05,North,350,3.0,5.0,89,0.00,,,0.01,Wunderground v.1.15,2013-12-16 18:27:00,
2013-12-16 13:33:00,29.2,26.4,30.04,NE,36,2.0,5.0,89,0.00,,,0.01,Wunderground v.1.15,2013-12-16 18:33:00,
2013-12-16 13:39:00,29.4,26.8,30.04,ENE,63,2.0,5.0,90,0.00,,,0.01,Wunderground v.1.15,2013-12-16 18:39:00,
2013-12-16 13:44:00,29.5,26.7,30.04,ENE,62,1.0,5.0,89,0.00,,,0.01,Wunderground v.1.15,2013-12-16 18:44:00,
2013-12-16 13:50:00,29.6,26.8,30.03,ENE,62,1.0,5.0,89,0.00,,,0.01,Wunderground v.1.15,2013-12-16 18:50:00,
2013-12-16 13:56:00,29.7,26.9,30.03,ENE,63,1.0,5.0,89,0.00,,,0.01,Wunderground v.1.15,2013-12-16 18:56:00,
2013-12-16 14:02:00,29.8,27.0,30.02,ENE,63,1.0,5.0,89,0.00,,,0.01,Wunderground v.1.15,2013-12-16 19:02:00,
2013-12-16 14:08:00,29.7,26.9,30.03,ENE,63,2.0,5.0,89,0.00,,,0.01,Wunderground v.1.15,2013-12-16 19:08:00,
2013-12-16 14:14:00,29.8,27.0,30.03,NE,52,2.0,5.0,89,0.00,,,0.01,Wunderground v.1.15,2013-12-16 19:14:00,
2013-12-16 14:20:00,29.9,27.1,30.03,North,9,2.0,5.0,89,0.00,,,0.01,Wunderground v.1.15,2013-12-16 19:20:00,
2013-12-16 14:25:00,30.1,27.5,30.03,NNW,340,2.0,5.0,90,0.00,,,0.01,Wunderground v.1.15,2013-12-16 19:25:00,
2013-12-16 14:31:00,30.1,27.3,30.03,North,351,3.0,5.0,89,0.00,,,0.01,Wunderground v.1.15,2013-12-16 19:31:00,
2013-12-16 14:37:00,30.1,27.3,30.03,NNW,345,3.0,5.0,89,0.00,,,0.01,Wunderground v.1.15,2013-12-16 19:37:00,
2013-12-16 14:43:00,30.0,27.2,30.03,North,5,3.0,5.0,89,0.00,,,0.01,Wunderground v.1.15,2013-12-16 19:43:00,
2013-12-16 14:48:00,30.0,27.2,30.03,NNW,344,3.0,5.0,89,0.00,,,0.01,Wunderground v.1.15,2013-12-16 19:48:00,
2013-12-16 14:54:00,29.9,27.3,30.04,NNW,342,3.0,5.0,90,0.00,,,0.01,Wunderground v.1.15,2013-12-16 19:54:00,
2013-12-16 15:00:00,29.8,27.2,30.03,North,355,3.0,5.0,90,0.00,,,0.01,Wunderground v.1.15,2013-12-16 20:00:00,
2013-12-16 15:06:00,29.7,27.1,30.03,NE,37,3.0,5.0,90,0.00,,,0.01,Wunderground v.1.15,2013-12-16 20:06:00,
2013-12-16 15:12:00,29.5,26.9,30.03,NNE,19,3.0,5.0,90,0.00,,,0.01,Wunderground v.1.15,2013-12-16 20:12:00,
2013-12-16 15:18:00,29.4,26.8,30.03,North,5,3.0,5.0,90,0.00,,,0.02,Wunderground v.1.15,2013-12-16 20:18:00,
2013-12-16 15:24:00,29.3,27.0,30.03,North,5,3.0,5.0,91,0.00,,,0.02,Wunderground v.1.15,2013-12-16 20:24:00,
2013-12-16 15:29:00,29.3,27.0,30.03,NE,44,3.0,5.0,91,0.00,,,0.02,Wunderground v.1.15,2013-12-16 20:29:00,
2013-12-16 15:35:00,29.3,27.0,30.03,NE,38,3.0,5.0,91,0.00,,,0.02,Wunderground v.1.15,2013-12-16 20:35:00,
2013-12-16 15:41:00,29.4,27.1,30.04,NNE,20,2.0,5.0,91,0.00,,,0.02,Wunderground v.1.15,2013-12-16 20:41:00,
2013-12-16 15:47:00,29.5,27.2,30.04,ENE,58,2.0,5.0,91,0.00,,,0.02,Wunderground v.1.15,2013-12-16 20:47:00,
2013-12-16 15:52:00,29.5,27.2,30.04,NE,45,2.0,5.0,91,0.00,,,0.02,Wunderground v.1.15,2013-12-16 20:52:00,
2013-12-16 15:58:00,29.5,27.5,30.04,NE,53,3.0,5.0,92,0.00,,,0.02,Wunderground v.1.15,2013-12-16 20:58:00,
2013-12-16 16:04:00,29.5,27.5,30.03,NE,43,3.0,5.0,92,0.00,,,0.02,Wunderground v.1.15,2013-12-16 21:04:00,
2013-12-16 16:10:00,29.4,27.4,30.04,ENE,58,2.0,2.0,92,0.00,,,0.02,Wunderground v.1.15,2013-12-16 21:10:00,
2013-12-16 16:16:00,29.5,27.5,30.04,NE,46,2.0,5.0,92,0.00,,,0.02,Wunderground v.1.15,2013-12-16 21:16:00,
2013-12-16 16:22:00,29.5,27.5,30.04,ENE,59,2.0,5.0,92,0.00,,,0.02,Wunderground v.1.15,2013-12-16 21:22:00,
2013-12-16 16:28:00,29.5,27.5,30.04,ENE,63,1.0,5.0,92,0.00,,,0.02,Wunderground v.1.15,2013-12-16 21:28:00,
2013-12-16 16:33:00,29.6,27.6,30.04,ENE,63,1.0,5.0,92,0.00,,,0.02,Wunderground v.1.15,2013-12-16 21:33:00,
2013-12-16 16:39:00,29.6,27.6,30.05,ENE,63,1.0,5.0,92,0.00,,,0.02,Wunderground v.1.15,2013-12-16 21:39:00,
2013-12-16 16:45:00,29.6,27.6,30.05,ENE,63,1.0,5.0,92,0.00,,,0.02,Wunderground v.1.15,2013-12-16 21:45:00,
2013-12-16 16:51:00,29.7,27.7,30.05,ENE,63,1.0,5.0,92,0.00,,,0.02,Wunderground v.1.15,2013-12-16 21:51:00,
2013-12-16 16:56:00,29.7,27.7,30.05,ENE,63,1.0,5.0,92,0.00,,,0.02,Wunderground v.1.15,2013-12-16 21:56:00,
2013-12-16 17:02:00,29.7,27.7,30.05,ENE,63,0.0,5.0,92,0.00,,,0.02,Wunderground v.1.15,2013-12-16 22:02:00,
2013-12-16 17:08:00,29.7,27.7,30.04,NE,55,1.0,5.0,92,0.00,,,0.02,Wunderground v.1.15,2013-12-16 22:08:00,
2013-12-16 17:14:00,29.7,27.9,30.03,NE,55,2.0,5.0,93,0.00,,,0.02,Wunderground v.1.15,2013-12-16 22:14:00,
2013-12-16 17:20:00,29.7,27.9,30.03,East,79,1.0,1.0,93,0.00,,,0.02,Wunderground v.1.15,2013-12-16 22:20:00,
2013-12-16 17:25:00,29.6,27.8,30.03,NE,44,1.0,5.0,93,0.00,,,0.02,Wunderground v.1.15,2013-12-16 22:25:00,
2013-12-16 17:31:00,29.6,27.8,30.03,NE,51,2.0,5.0,93,0.00,,,0.02,Wunderground v.1.15,2013-12-16 22:31:00,
2013-12-16 17:37:00,29.5,27.7,30.03,ENE,69,2.0,5.0,93,0.00,,,0.02,Wunderground v.1.15,2013-12-16 22:37:00,
2013-12-16 17:43:00,29.5,28.0,30.03,NE,55,1.0,5.0,94,0.00,,,0.02,Wunderground v.1.15,2013-12-16 22:43:00,
2013-12-16 17:48:00,29.6,28.1,30.04,NE,45,1.0,5.0,94,0.00,,,0.02,Wunderground v.1.15,2013-12-16 22:48:00,
2013-12-16 17:54:00,29.6,28.1,30.04,NE,45,0.0,5.0,94,0.00,,,0.02,Wunderground v.1.15,2013-12-16 22:54:00,
2013-12-16 18:00:00,29.6,28.1,30.04,NE,45,0.0,5.0,94,0.00,,,0.02,Wunderground v.1.15,2013-12-16 23:00:00,
2013-12-16 18:06:00,29.6,28.1,30.04,NE,45,0.0,5.0,94,0.00,,,0.02,Wunderground v.1.15,2013-12-16 23:06:00,
2013-12-16 18:12:00,29.6,28.1,30.03,NE,45,0.0,5.0,94,0.00,,,0.02,Wunderground v.1.15,2013-12-16 23:12:00,
2013-12-16 18:18:00,29.6,28.1,30.03,NE,45,0.0,5.0,94,0.00,,,0.02,Wunderground v.1.15,2013-12-16 23:18:00,
2013-12-16 18:24:00,29.7,28.2,30.03,NE,45,0.0,5.0,94,0.00,,,0.02,Wunderground v.1.15,2013-12-16 23:24:00,
2013-12-16 18:30:00,29.6,28.1,30.03,NE,45,0.0,5.0,94,0.00,,,0.02,Wunderground v.1.15,2013-12-16 23:30:00,
2013-12-16 18:35:00,29.5,28.0,30.03,NE,45,0.0,5.0,94,0.00,,,0.02,Wunderground v.1.15,2013-12-16 23:35:00,
2013-12-16 18:41:00,29.4,27.9,30.04,NE,34,0.0,5.0,94,0.00,,,0.02,Wunderground v.1.15,2013-12-16 23:41:00,
2013-12-16 18:47:00,29.4,27.9,30.04,WNW,301,1.0,5.0,94,0.00,,,0.02,Wunderground v.1.15,2013-12-16 23:47:00,
2013-12-16 18:53:00,29.3,27.8,30.04,WNW,301,1.0,5.0,94,0.00,,,0.02,Wunderground v.1.15,2013-12-16 23:53:00,
2013-12-16 18:59:00,29.2,27.7,30.04,WNW,301,1.0,5.0,94,0.00,,,0.02,Wunderground v.1.15,2013-12-16 23:59:00,
2013-12-16 19:05:00,29.2,27.7,30.04,WNW,301,2.0,5.0,94,0.00,,,0.02,Wunderground v.1.15,2013-12-17 00:05:00,
2013-12-16 19:11:00,28.9,27.4,30.04,WNW,301,2.0,5.0,94,0.00,,,0.02,Wunderground v.1.15,2013-12-17 00:11:00,
2013-12-16 19:16:00,28.8,27.3,30.03,WNW,301,2.0,5.0,94,0.00,,,0.02,Wunderground v.1.15,2013-12-17 00:16:00,
2013-12-16 19:22:00,28.7,27.2,30.03,WNW,301,1.0,5.0,94,0.00,,,0.02,Wunderground v.1.15,2013-12-17 00:22:00,
2013-12-16 19:28:00,28.5,27.0,30.03,WNW,301,0.0,5.0,94,0.00,,,0.02,Wunderground v.1.15,2013-12-17 00:28:00,
2013-12-16 19:34:00,28.3,26.8,30.03,WNW,301,0.0,5.0,94,0.00,,,0.02,Wunderground v.1.15,2013-12-17 00:34:00,
2013-12-16 19:39:00,28.0,26.5,30.03,WNW,301,0.0,5.0,94,0.00,,,0.02,Wunderground v.1.15,2013-12-17 00:39:00,
2013-12-16 19:45:00,27.8,26.3,30.03,WNW,301,0.0,5.0,94,0.00,,,0.02,Wunderground v.1.15,2013-12-17 00:45:00,
2013-12-16 19:51:00,27.6,26.4,30.03,WNW,301,0.0,5.0,95,0.00,,,0.02,Wunderground v.1.15,2013-12-17 00:51:00,
2013-12-16 19:57:00,27.4,25.9,30.02,WNW,301,0.0,5.0,94,0.00,,,0.02,Wunderground v.1.15,2013-12-17 00:57:00,
2013-12-16 20:03:00,27.2,26.0,30.02,WNW,301,0.0,5.0,95,0.00,,,0.02,Wunderground v.1.15,2013-12-17 01:03:00,
2013-12-16 20:09:00,27.2,26.0,30.02,WNW,301,0.0,5.0,95,0.00,,,0.02,Wunderground v.1.15,2013-12-17 01:09:00,
2013-12-16 20:15:00,27.5,26.5,30.01,East,90,1.0,5.0,96,0.00,,,0.02,Wunderground v.1.15,2013-12-17 01:15:00,
2013-12-16 20:20:00,27.5,26.5,30.01,East,98,1.0,5.0,96,0.00,,,0.02,Wunderground v.1.15,2013-12-17 01:20:00,
2013-12-16 20:26:00,27.6,26.6,30.01,East,98,1.0,5.0,96,0.00,,,0.02,Wunderground v.1.15,2013-12-17 01:26:00,
2013-12-16 20:32:00,27.6,26.6,30.02,East,98,0.0,5.0,96,0.00,,,0.02,Wunderground v.1.15,2013-12-17 01:32:00,
2013-12-16 20:34:00,27.6,26.6,30.01,East,98,0.0,5.0,96,0.00,,,0.02,Wunderground v.1.15,2013-12-17 01:34:00,
2013-12-16 20:40:00,27.6,26.6,30.01,East,98,0.0,5.0,96,0.00,,,0.02,Wunderground v.1.15,2013-12-17 01:40:00,
2013-12-16 20:45:00,27.5,26.5,30.01,East,98,0.0,5.0,96,0.00,,,0.02,Wunderground v.1.15,2013-12-17 01:45:00,
2013-12-16 20:51:00,27.3,26.3,30.01,East,98,0.0,5.0,96,0.00,,,0.02,Wunderground v.1.15,2013-12-17 01:51:00,
2013-12-16 20:57:00,27.1,26.1,30.01,East,98,0.0,5.0,96,0.00,,,0.02,Wunderground v.1.15,2013-12-17 01:57:00,
2013-12-16 21:03:00,27.1,26.1,30.01,East,98,1.0,5.0,96,0.00,,,0.02,Wunderground v.1.15,2013-12-17 02:03:00,
2013-12-16 21:08:00,27.1,26.1,30.01,East,98,1.0,5.0,96,0.00,,,0.02,Wunderground v.1.15,2013-12-17 02:08:00,
2013-12-16 21:14:00,27.2,26.5,30.01,East,98,1.0,5.0,97,0.00,,,0.02,Wunderground v.1.15,2013-12-17 02:14:00,
2013-12-16 21:20:00,27.1,26.1,30.01,East,98,1.0,1.0,96,0.00,,,0.02,Wunderground v.1.15,2013-12-17 02:20:00,
2013-12-16 21:26:00,26.9,25.9,30.01,East,98,0.0,5.0,96,0.00,,,0.02,Wunderground v.1.15,2013-12-17 02:26:00,
2013-12-16 21:32:00,26.8,25.8,30.01,East,98,0.0,5.0,96,0.00,,,0.02,Wunderground v.1.15,2013-12-17 02:32:00,
2013-12-16 21:38:00,26.9,26.2,30.01,East,98,1.0,5.0,97,0.00,,,0.02,Wunderground v.1.15,2013-12-17 02:38:00,
2013-12-16 21:44:00,26.9,26.2,30.01,East,98,1.0,5.0,97,0.00,,,0.02,Wunderground v.1.15,2013-12-17 02:44:00,
2013-12-16 21:49:00,26.9,26.2,30.01,East,98,1.0,5.0,97,0.00,,,0.02,Wunderground v.1.15,2013-12-17 02:49:00,
2013-12-16 21:55:00,26.7,25.7,30.01,East,98,1.0,5.0,96,0.00,,,0.02,Wunderground v.1.15,2013-12-17 02:55:00,
2013-12-16 22:01:00,26.6,25.6,30.01,East,98,1.0,5.0,96,0.00,,,0.02,Wunderground v.1.15,2013-12-17 03:01:00,
2013-12-16 22:07:00,26.7,26.0,30.00,SSE,156,1.0,5.0,97,0.00,,,0.02,Wunderground v.1.15,2013-12-17 03:07:00,
2013-12-16 22:12:00,26.7,26.0,30.00,South,169,1.0,5.0,97,0.00,,,0.02,Wunderground v.1.15,2013-12-17 03:12:00,
2013-12-16 22:17:00,26.7,26.0,30.01,South,169,1.0,5.0,97,0.00,,,0.02,Wunderground v.1.15,2013-12-17 03:17:00,
2013-12-16 22:23:00,26.7,26.0,30.01,South,169,0.0,5.0,97,0.00,,,0.02,Wunderground v.1.15,2013-12-17 03:23:00,
2013-12-16 22:29:00,26.7,26.0,30.01,South,169,0.0,5.0,97,0.00,,,0.02,Wunderground v.1.15,2013-12-17 03:29:00,
2013-12-16 22:34:00,26.5,25.8,30.01,South,169,0.0,5.0,97,0.00,,,0.02,Wunderground v.1.15,2013-12-17 03:34:00,
2013-12-16 22:40:00,26.6,25.9,30.01,South,169,0.0,5.0,97,0.00,,,0.02,Wunderground v.1.15,2013-12-17 03:40:00,
2013-12-16 22:46:00,26.5,25.8,30.01,South,169,0.0,5.0,97,0.00,,,0.02,Wunderground v.1.15,2013-12-17 03:46:00,
2013-12-16 22:52:00,26.2,25.5,30.01,South,169,0.0,5.0,97,0.00,,,0.02,Wunderground v.1.15,2013-12-17 03:52:00,
2013-12-16 22:58:00,26.0,25.3,30.01,South,171,1.0,5.0,97,0.00,,,0.02,Wunderground v.1.15,2013-12-17 03:58:00,
2013-12-16 23:04:00,25.7,24.7,30.01,WNW,291,1.0,5.0,96,0.00,,,0.02,Wunderground v.1.15,2013-12-17 04:04:00,
2013-12-16 23:10:00,25.5,24.8,30.01,NW,308,1.0,1.0,97,0.00,,,0.02,Wunderground v.1.15,2013-12-17 04:10:00,
2013-12-16 23:15:00,25.6,24.9,30.01,NW,308,0.0,5.0,97,0.00,,,0.02,Wunderground v.1.15,2013-12-17 04:15:00,
2013-12-16 23:21:00,25.8,25.1,30.00,WNW,298,0.0,5.0,97,0.00,,,0.02,Wunderground v.1.15,2013-12-17 04:21:00,
2013-12-16 23:27:00,26.3,25.8,30.01,WSW,253,1.0,5.0,98,0.00,,,0.02,Wunderground v.1.15,2013-12-17 04:27:00,
2013-12-16 23:33:00,27.5,27.0,30.01,WNW,284,2.0,5.0,98,0.00,,,0.02,Wunderground v.1.15,2013-12-17 04:33:00,
2013-12-16 23:38:00,27.3,26.8,30.01,WNW,298,3.0,5.0,98,0.00,,,0.02,Wunderground v.1.15,2013-12-17 04:38:00,
2013-12-16 23:44:00,25.9,24.9,30.01,NW,324,4.0,5.0,96,0.00,,,0.02,Wunderground v.1.15,2013-12-17 04:44:00,
2013-12-16 23:50:00,25.8,25.1,30.02,NW,322,5.0,5.0,97,0.00,,,0.02,Wunderground v.1.15,2013-12-17 04:50:00,
2013-12-16 23:56:00,25.9,25.2,30.02,NW,323,5.0,6.0,97,0.00,,,0.02,Wunderground v.1.15,2013-12-17 04:56:00,